Time,TemperatureF,DewpointF,PressureIn,WindDirection,WindDirectionDegrees,WindSpeedMPH,WindSpeedGustMPH,Humidity,HourlyPrecipIn,Conditions,Clouds,dailyrainin,SolarRadiationWatts/m^2,SoftwareType,DateUTC
2013-05-10 00:01:00,38.2,32.3,30.15,ENE,68,2.3,2.3,79,0.00,RA,,0.00,0.0,WeatherDisplay:10.37,2013-05-10 05:01:00,
2013-05-10 00:06:00,37.9,32.3,30.15,ENE,59,1.1,1.1,80,0.00,RA,,0.00,0.0,WeatherDisplay:10.37,2013-05-10 05:06:00,
2013-05-10 00:11:00,37.7,32.1,30.15,NE,44,3.0,3.0,80,0.00,FEW,,0.00,0.0,WeatherDisplay:10.37,2013-05-10 05:11:00,
2013-05-10 00:16:00,37.5,31.9,30.15,ENE,78,2.3,2.3,80,0.00,FEW,,0.00,0.0,WeatherDisplay:10.37,2013-05-10 05:16:00,
2013-05-10 00:21:00,37.4,31.8,30.16,ENE,63,1.1,1.1,80,0.00,FEW,,0.00,0.0,WeatherDisplay:10.37,2013-05-10 05:21:00,
2013-05-10 00:26:00,37.3,31.7,30.16,NE,53,2.3,2.3,80,0.00,FEW,,0.00,0.0,WeatherDisplay:10.37,2013-05-10 05:26:00,
2013-05-10 00:31:00,37.1,31.5,30.16,ENE,65,3.5,3.5,80,0.00,FEW,,0.00,0.0,WeatherDisplay:10.37,2013-05-10 05:31:00,
2013-05-10 00:36:00,37.0,31.1,30.16,ENE,74,4.6,4.6,79,0.00,FEW,,0.00,0.0,WeatherDisplay:10.37,2013-05-10 05:36:00,
2013-05-10 00:41:00,36.9,31.3,30.16,East,80,1.1,1.1,80,0.00,FEW,,0.00,0.0,WeatherDisplay:10.37,2013-05-10 05:41:00,
2013-05-10 00:46:00,36.7,31.1,30.16,ENE,78,3.5,3.5,80,0.00,FEW,,0.00,0.0,WeatherDisplay:10.37,2013-05-10 05:46:00,
2013-05-10 00:51:00,36.7,31.1,30.16,ENE,78,3.5,3.5,80,0.00,FEW,,0.00,0.0,WeatherDisplay:10.37,2013-05-10 05:51:00,
2013-05-10 00:56:00,36.6,31.0,30.16,ENE,74,2.0,2.0,80,0.00,FEW,,0.00,0.0,WeatherDisplay:10.37,2013-05-10 05:56:00,
2013-05-10 01:01:00,36.5,30.9,30.16,NNE,15,3.5,3.5,80,0.00,CLR,,0.00,0.0,WeatherDisplay:10.37,2013-05-10 06:01:00,
2013-05-10 01:06:00,36.4,30.8,30.16,NNE,26,3.0,3.0,80,0.00,CLR,,0.00,0.0,WeatherDisplay:10.37,2013-05-10 06:06:00,
2013-05-10 01:11:00,36.3,30.7,30.16,East,87,1.1,1.7,80,0.00,CLR,,0.00,0.0,WeatherDisplay:10.37,2013-05-10 06:11:00,
2013-05-10 01:16:00,36.3,30.4,30.16,NNE,17,4.6,4.6,79,0.00,CLR,,0.00,0.0,WeatherDisplay:10.37,2013-05-10 06:16:00,
2013-05-10 01:21:00,36.2,30.3,30.16,NNE,21,3.0,3.0,79,0.00,CLR,,0.00,0.0,WeatherDisplay:10.37,2013-05-10 06:21:00,
2013-05-10 01:26:00,36.2,30.3,30.16,North,5,3.5,3.5,79,0.00,CLR,,0.00,0.0,WeatherDisplay:10.37,2013-05-10 06:26:00,
2013-05-10 01:31:00,36.2,30.3,30.15,NE,35,3.5,3.5,79,0.00,CLR,,0.00,0.0,WeatherDisplay:10.37,2013-05-10 06:31:00,
2013-05-10 01:36:00,36.1,30.2,30.15,ENE,72,3.5,3.5,79,0.00,CLR,,0.00,0.0,WeatherDisplay:10.37,2013-05-10 06:36:00,
2013-05-10 01:41:00,36.1,29.9,30.15,NNW,345,4.6,4.6,78,0.00,CLR,,0.00,0.0,WeatherDisplay:10.37,2013-05-10 06:41:00,
2013-05-10 01:46:00,36.1,29.9,30.15,ESE,117,2.3,2.3,78,0.00,CLR,,0.00,0.0,WeatherDisplay:10.37,2013-05-10 06:46:00,
2013-05-10 01:51:00,36.1,29.9,30.15,ENE,69,2.3,2.3,78,0.00,CLR,,0.00,0.0,WeatherDisplay:10.37,2013-05-10 06:51:00,
2013-05-10 01:56:00,36.1,29.6,30.15,ENE,71,4.6,4.6,77,0.00,CLR,,0.00,0.0,WeatherDisplay:10.37,2013-05-10 06:56:00,
2013-05-10 02:01:00,36.1,29.9,30.15,ENE,70,2.3,2.3,78,0.00,CLR,,0.00,0.0,WeatherDisplay:10.37,2013-05-10 07:01:00,
2013-05-10 02:06:00,36.0,29.5,30.15,ENE,68,3.5,3.5,77,0.00,CLR,,0.00,0.0,WeatherDisplay:10.37,2013-05-10 07:06:00,
2013-05-10 02:11:00,36.1,29.6,30.15,NE,55,3.5,3.5,77,0.00,CLR,,0.00,0.0,WeatherDisplay:10.37,2013-05-10 07:11:00,
2013-05-10 02:16:00,36.0,29.2,30.14,East,87,3.5,3.5,76,0.00,CLR,,0.00,0.0,WeatherDisplay:10.37,2013-05-10 07:16:00,
2013-05-10 02:22:00,36.1,29.6,30.14,ESE,102,2.3,2.3,77,0.00,CLR,,0.00,0.0,WeatherDisplay:10.37,2013-05-10 07:22:00,
2013-05-10 02:27:00,36.0,29.8,30.15,NNE,31,4.6,4.6,78,0.00,CLR,,0.00,0.0,WeatherDisplay:10.37,2013-05-10 07:27:00,
2013-05-10 02:32:00,35.9,29.4,30.15,ENE,66,2.3,2.3,77,0.00,CLR,,0.00,0.0,WeatherDisplay:10.37,2013-05-10 07:32:00,
2013-05-10 02:37:00,35.9,29.4,30.14,NNE,24,3.5,3.5,77,0.00,CLR,,0.00,0.0,WeatherDisplay:10.37,2013-05-10 07:37:00,
2013-05-10 02:42:00,35.7,29.2,30.14,NNE,17,3.5,3.5,77,0.00,CLR,,0.00,0.0,WeatherDisplay:10.37,2013-05-10 07:42:00,
2013-05-10 02:47:00,35.7,29.2,30.14,ENE,76,1.1,1.1,77,0.00,CLR,,0.00,0.0,WeatherDisplay:10.37,2013-05-10 07:47:00,
2013-05-10 02:52:00,35.6,29.1,30.15,NE,56,1.1,1.1,77,0.00,CLR,,0.00,0.0,WeatherDisplay:10.37,2013-05-10 07:52:00,
2013-05-10 02:57:00,35.4,29.2,30.14,NNE,27,2.3,2.3,78,0.00,CLR,,0.00,0.0,WeatherDisplay:10.37,2013-05-10 07:57:00,
2013-05-10 03:02:00,35.2,28.7,30.14,ENE,69,1.1,1.1,77,0.00,CLR,,0.00,0.0,WeatherDisplay:10.37,2013-05-10 08:02:00,
2013-05-10 03:07:00,35.0,28.8,30.15,ENE,72,2.3,2.3,78,0.00,CLR,,0.00,0.0,WeatherDisplay:10.37,2013-05-10 08:07:00,
2013-05-10 03:12:00,34.8,29.0,30.15,ENE,76,1.1,0.0,79,0.00,CLR,,0.00,0.0,WeatherDisplay:10.37,2013-05-10 08:12:00,
2013-05-10 03:17:00,34.7,29.2,30.15,ENE,75,1.1,1.1,80,0.00,CLR,,0.00,0.0,WeatherDisplay:10.37,2013-05-10 08:17:00,
2013-05-10 03:22:00,34.5,28.7,30.15,ENE,75,1.1,1.1,79,0.00,CLR,,0.00,0.0,WeatherDisplay:10.37,2013-05-10 08:22:00,
2013-05-10 03:27:00,34.4,28.9,30.15,East,82,2.3,2.3,80,0.00,CLR,,0.00,0.0,WeatherDisplay:10.37,2013-05-10 08:27:00,
2013-05-10 03:32:00,34.2,28.7,30.15,East,80,0.0,0.0,80,0.00,CLR,,0.00,0.0,WeatherDisplay:10.37,2013-05-10 08:32:00,
2013-05-10 03:37:00,34.1,28.6,30.15,East,88,1.1,1.1,80,0.00,CLR,,0.00,0.0,WeatherDisplay:10.37,2013-05-10 08:37:00,
2013-05-10 03:42:00,33.9,28.7,30.15,ENE,71,0.0,0.0,81,0.00,CLR,,0.00,0.0,WeatherDisplay:10.37,2013-05-10 08:42:00,
2013-05-10 03:47:00,33.8,28.6,30.15,ENE,70,0.0,0.0,81,0.00,CLR,,0.00,0.0,WeatherDisplay:10.37,2013-05-10 08:47:00,
2013-05-10 03:52:00,33.6,28.4,30.15,East,97,2.3,2.3,81,0.00,CLR,,0.00,0.0,WeatherDisplay:10.37,2013-05-10 08:52:00,
2013-05-10 03:57:00,33.4,28.5,30.15,North,5,1.1,1.1,82,0.00,CLR,,0.00,0.0,WeatherDisplay:10.37,2013-05-10 08:57:00,
2013-05-10 04:02:00,33.3,28.4,30.15,ENE,73,1.1,0.0,82,0.00,CLR,,0.00,0.0,WeatherDisplay:10.37,2013-05-10 09:02:00,
2013-05-10 04:07:00,33.2,28.3,30.15,ENE,77,0.0,0.0,82,0.00,CLR,,0.00,0.0,WeatherDisplay:10.37,2013-05-10 09:07:00,
2013-05-10 04:12:00,33.1,28.5,30.15,ENE,69,0.0,0.0,83,0.00,CLR,,0.00,0.0,WeatherDisplay:10.37,2013-05-10 09:12:00,
2013-05-10 04:17:00,33.0,28.4,30.15,NE,36,1.1,1.1,83,0.00,CLR,,0.00,0.0,WeatherDisplay:10.37,2013-05-10 09:17:00,
2013-05-10 04:22:00,32.9,28.3,30.15,East,80,2.3,2.3,83,0.00,CLR,,0.00,0.0,WeatherDisplay:10.37,2013-05-10 09:22:00,
2013-05-10 04:27:00,32.8,28.5,30.15,NE,36,1.1,1.1,84,0.00,CLR,,0.00,0.0,WeatherDisplay:10.37,2013-05-10 09:27:00,
2013-05-10 04:32:00,32.8,28.5,30.15,NE,51,0.0,0.0,84,0.00,CLR,,0.00,0.0,WeatherDisplay:10.37,2013-05-10 09:32:00,
2013-05-10 04:37:00,32.8,28.5,30.15,ENE,62,2.3,2.3,84,0.00,CLR,,0.00,0.0,WeatherDisplay:10.37,2013-05-10 09:37:00,
2013-05-10 04:42:00,32.7,28.4,30.15,SW,231,1.1,1.1,84,0.00,CLR,,0.00,0.0,WeatherDisplay:10.37,2013-05-10 09:42:00,
2013-05-10 04:47:00,32.6,28.3,30.15,NNE,15,1.1,1.1,84,0.00,CLR,,0.00,0.0,WeatherDisplay:10.37,2013-05-10 09:47:00,
2013-05-10 04:52:00,32.5,28.2,30.15,ENE,61,1.1,0.0,84,0.00,CLR,,0.00,0.0,WeatherDisplay:10.37,2013-05-10 09:52:00,
2013-05-10 04:57:00,32.5,28.5,30.15,NE,48,1.1,0.0,85,0.00,CLR,,0.00,0.0,WeatherDisplay:10.37,2013-05-10 09:57:00,
2013-05-10 05:02:00,32.5,28.5,30.15,NNE,31,1.1,0.0,85,0.00,CLR,,0.00,0.0,WeatherDisplay:10.37,2013-05-10 10:02:00,
2013-05-10 05:07:00,32.5,28.5,30.15,NE,47,1.1,0.0,85,0.00,CLR,,0.00,0.0,WeatherDisplay:10.37,2013-05-10 10:07:00,
2013-05-10 05:12:00,32.4,28.4,30.15,NNE,28,2.0,2.0,85,0.00,CLR,,0.00,0.0,WeatherDisplay:10.37,2013-05-10 10:12:00,
2013-05-10 05:17:00,32.4,28.4,30.15,NNE,25,0.0,0.1,85,0.00,CLR,,0.00,0.0,WeatherDisplay:10.37,2013-05-10 10:17:00,
2013-05-10 05:22:00,32.4,28.4,30.15,NNE,21,2.3,2.3,85,0.00,CLR,,0.00,0.0,WeatherDisplay:10.37,2013-05-10 10:22:00,
2013-05-10 05:27:00,32.4,28.4,30.15,NE,44,3.0,3.0,85,0.00,CLR,,0.00,0.0,WeatherDisplay:10.37,2013-05-10 10:27:00,
2013-05-10 05:32:00,32.4,28.4,30.15,NNE,30,1.1,1.1,85,0.00,CLR,,0.00,0.0,WeatherDisplay:10.37,2013-05-10 10:32:00,
2013-05-10 05:37:00,32.3,28.6,30.15,NE,38,0.0,0.3,86,0.00,CLR,,0.00,0.0,WeatherDisplay:10.37,2013-05-10 10:37:00,
2013-05-10 05:42:00,32.3,28.6,30.15,NNE,19,2.3,0.0,86,0.00,CLR,,0.00,0.0,WeatherDisplay:10.37,2013-05-10 10:42:00,
2013-05-10 05:47:00,32.3,28.6,30.15,NNE,19,0.0,0.0,86,0.00,CLR,,0.00,0.0,WeatherDisplay:10.37,2013-05-10 10:47:00,
2013-05-10 05:52:00,32.2,28.5,30.15,NNE,19,1.1,0.0,86,0.00,CLR,,0.00,0.0,WeatherDisplay:10.37,2013-05-10 10:52:00,
2013-05-10 05:57:00,32.1,28.4,30.15,NNE,31,1.1,0.0,86,0.00,CLR,,0.00,5.0,WeatherDisplay:10.37,2013-05-10 10:57:00,
2013-05-10 06:02:00,32.1,28.4,30.15,NW,320,2.3,0.0,86,0.00,CLR,,0.00,7.0,WeatherDisplay:10.37,2013-05-10 11:02:00,
2013-05-10 06:07:00,32.1,28.4,30.14,NNE,20,2.3,2.3,86,0.00,CLR,,0.00,9.0,WeatherDisplay:10.37,2013-05-10 11:07:00,
2013-05-10 06:12:00,32.2,28.5,30.15,NE,45,2.3,2.3,86,0.00,CLR,,0.00,11.0,WeatherDisplay:10.37,2013-05-10 11:12:00,
2013-05-10 06:17:00,32.3,28.6,30.15,ENE,60,3.5,3.5,86,0.00,CLR,,0.00,12.0,WeatherDisplay:10.37,2013-05-10 11:17:00,
2013-05-10 06:22:00,32.5,28.8,30.15,ENE,67,0.0,0.1,86,0.00,CLR,,0.00,12.0,WeatherDisplay:10.37,2013-05-10 11:22:00,
2013-05-10 06:27:00,32.6,28.9,30.15,NNE,22,1.1,1.1,86,0.00,CLR,,0.00,14.0,WeatherDisplay:10.37,2013-05-10 11:27:00,
2013-05-10 06:32:00,32.7,29.0,30.15,NE,47,1.1,1.1,86,0.00,CLR,,0.00,16.0,WeatherDisplay:10.37,2013-05-10 11:32:00,
2013-05-10 06:37:00,32.8,29.1,30.15,NNW,343,1.1,0.0,86,0.00,CLR,,0.00,18.0,WeatherDisplay:10.37,2013-05-10 11:37:00,
2013-05-10 06:42:00,33.0,29.0,30.15,NNE,28,1.0,1.0,85,0.00,CLR,,0.00,23.0,WeatherDisplay:10.37,2013-05-10 11:42:00,
2013-05-10 06:47:00,33.3,29.0,30.15,ENE,72,1.1,1.1,84,0.00,CLR,,0.00,32.0,WeatherDisplay:10.37,2013-05-10 11:47:00,
2013-05-10 06:52:00,33.5,29.2,30.15,ENE,70,3.5,3.5,84,0.00,CLR,,0.00,21.0,WeatherDisplay:10.37,2013-05-10 11:52:00,
2013-05-10 06:57:00,33.7,29.4,30.15,ENE,70,0.0,0.0,84,0.00,CLR,,0.00,30.0,WeatherDisplay:10.37,2013-05-10 11:57:00,
2013-05-10 07:02:00,33.9,29.0,30.15,ENE,69,8.1,8.1,82,0.00,CLR,,0.00,40.0,WeatherDisplay:10.37,2013-05-10 12:02:00,
2013-05-10 07:07:00,34.1,29.2,30.15,ENE,62,1.0,1.0,82,0.00,CLR,,0.00,26.0,WeatherDisplay:10.37,2013-05-10 12:07:00,
2013-05-10 07:12:00,34.3,29.4,30.15,NNE,24,2.3,2.3,82,0.00,CLR,,0.00,26.0,WeatherDisplay:10.37,2013-05-10 12:12:00,
2013-05-10 07:17:00,34.6,29.4,30.15,NE,36,3.5,3.5,81,0.00,CLR,,0.00,30.0,WeatherDisplay:10.37,2013-05-10 12:17:00,
2013-05-10 07:22:00,34.7,29.5,30.15,NE,53,0.0,0.6,81,0.00,CLR,,0.00,53.0,WeatherDisplay:10.37,2013-05-10 12:22:00,
2013-05-10 07:27:00,35.1,29.6,30.15,NE,48,2.3,2.3,80,0.00,CLR,,0.00,176.0,WeatherDisplay:10.37,2013-05-10 12:27:00,
2013-05-10 07:32:00,35.6,29.1,30.15,East,87,4.6,4.6,77,0.00,CLR,,0.00,178.0,WeatherDisplay:10.37,2013-05-10 12:32:00,
2013-05-10 07:37:00,36.0,29.5,30.16,ENE,67,2.3,2.3,77,0.00,CLR,,0.00,100.0,WeatherDisplay:10.37,2013-05-10 12:37:00,
2013-05-10 07:43:00,36.3,29.1,30.16,ENE,65,3.5,3.5,75,0.00,CLR,,0.00,88.0,WeatherDisplay:10.37,2013-05-10 12:43:00,
2013-05-10 07:48:00,36.5,29.3,30.15,NE,38,3.5,3.5,75,0.00,CLR,,0.00,244.0,WeatherDisplay:10.37,2013-05-10 12:48:00,
2013-05-10 07:53:00,37.0,29.5,30.15,NE,35,3.5,3.5,74,0.00,CLR,,0.00,179.0,WeatherDisplay:10.37,2013-05-10 12:53:00,
2013-05-10 07:58:00,37.2,29.7,30.15,ENE,67,3.5,3.5,74,0.00,CLR,,0.00,244.0,WeatherDisplay:10.37,2013-05-10 12:58:00,
2013-05-10 08:03:00,37.5,29.3,30.15,East,80,3.5,3.5,72,0.00,CLR,,0.00,199.0,WeatherDisplay:10.37,2013-05-10 13:03:00,
2013-05-10 08:08:00,37.9,30.4,30.15,NE,44,2.3,2.3,74,0.00,CLR,,0.00,46.0,WeatherDisplay:10.37,2013-05-10 13:08:00,
2013-05-10 08:13:00,38.2,30.0,30.15,North,11,1.1,1.1,72,0.00,CLR,,0.00,42.0,WeatherDisplay:10.37,2013-05-10 13:13:00,
2013-05-10 08:18:00,38.3,29.4,30.15,ENE,65,4.6,4.6,70,0.00,CLR,,0.00,54.0,WeatherDisplay:10.37,2013-05-10 13:18:00,
2013-05-10 08:23:00,38.4,29.1,30.15,ENE,72,2.3,2.3,69,0.00,CLR,,0.00,53.0,WeatherDisplay:10.37,2013-05-10 13:23:00,
2013-05-10 08:28:00,38.8,29.8,30.15,East,88,4.6,4.6,70,0.00,CLR,,0.00,47.0,WeatherDisplay:10.37,2013-05-10 13:28:00,
2013-05-10 08:33:00,39.1,30.1,30.15,ENE,58,1.1,1.1,70,0.00,CLR,,0.00,42.0,WeatherDisplay:10.37,2013-05-10 13:33:00,
2013-05-10 08:38:00,39.4,28.6,30.15,ENE,69,4.6,4.6,65,0.00,CLR,,0.00,42.0,WeatherDisplay:10.37,2013-05-10 13:38:00,
2013-05-10 08:43:00,39.6,29.2,30.15,SSE,154,2.3,2.3,66,0.00,CLR,,0.00,60.0,WeatherDisplay:10.37,2013-05-10 13:43:00,
2013-05-10 08:48:00,40.0,29.6,30.15,East,101,3.5,3.5,66,0.00,CLR,,0.00,181.0,WeatherDisplay:10.37,2013-05-10 13:48:00,
2013-05-10 08:53:00,40.5,28.1,30.15,NNE,28,2.3,2.3,61,0.00,CLR,,0.00,67.0,WeatherDisplay:10.37,2013-05-10 13:53:00,
2013-05-10 08:58:00,40.7,27.9,30.14,NE,42,4.0,4.0,60,0.00,CLR,,0.00,49.0,WeatherDisplay:10.37,2013-05-10 13:58:00,
2013-05-10 09:03:00,41.0,28.6,30.15,NE,46,1.1,1.1,61,0.00,CLR,,0.00,109.0,WeatherDisplay:10.37,2013-05-10 14:03:00,
2013-05-10 09:08:00,41.3,28.0,30.14,ENE,59,4.0,4.0,59,0.00,CLR,,0.00,90.0,WeatherDisplay:10.37,2013-05-10 14:08:00,
2013-05-10 09:13:00,41.7,26.7,30.14,NE,35,3.5,3.5,55,0.00,CLR,,0.00,51.0,WeatherDisplay:10.37,2013-05-10 14:13:00,
2013-05-10 09:18:00,42.0,27.0,30.14,NE,45,3.5,3.5,55,0.00,CLR,,0.00,65.0,WeatherDisplay:10.37,2013-05-10 14:18:00,
2013-05-10 09:23:00,42.4,26.9,30.14,ENE,75,6.9,6.9,54,0.00,CLR,,0.00,83.0,WeatherDisplay:10.37,2013-05-10 14:23:00,
2013-05-10 09:28:00,42.8,25.9,30.14,ENE,61,3.5,3.5,51,0.00,CLR,,0.00,47.0,WeatherDisplay:10.37,2013-05-10 14:28:00,
2013-05-10 09:33:00,43.1,26.7,30.14,East,101,3.5,3.5,52,0.00,CLR,,0.00,51.0,WeatherDisplay:10.37,2013-05-10 14:33:00,
2013-05-10 09:38:00,43.4,26.9,30.14,ENE,75,2.3,2.3,52,0.00,CLR,,0.00,51.0,WeatherDisplay:10.37,2013-05-10 14:38:00,
2013-05-10 09:43:00,43.6,28.0,30.14,ENE,69,2.3,2.3,54,0.00,CLR,,0.00,53.0,WeatherDisplay:10.37,2013-05-10 14:43:00,
2013-05-10 09:48:00,43.8,26.3,30.13,NNE,23,2.3,2.3,50,0.00,CLR,,0.00,51.0,WeatherDisplay:10.37,2013-05-10 14:48:00,
2013-05-10 09:53:00,44.4,27.4,30.13,ENE,74,4.0,4.0,51,0.00,CLR,,0.00,53.0,WeatherDisplay:10.37,2013-05-10 14:53:00,
2013-05-10 09:58:00,44.6,26.6,30.13,NE,40,3.5,3.5,49,0.00,CLR,,0.00,76.0,WeatherDisplay:10.37,2013-05-10 14:58:00,
2013-05-10 10:03:00,44.9,26.9,30.13,NE,36,2.3,2.3,49,0.00,CLR,,0.00,65.0,WeatherDisplay:10.37,2013-05-10 15:03:00,
2013-05-10 10:08:00,45.3,26.2,30.13,East,81,3.5,3.5,47,0.00,CLR,,0.00,86.0,WeatherDisplay:10.37,2013-05-10 15:08:00,
2013-05-10 10:13:00,45.5,26.9,30.13,East,86,3.5,3.5,48,0.00,CLR,,0.00,60.0,WeatherDisplay:10.37,2013-05-10 15:13:00,
2013-05-10 10:18:00,45.8,25.6,30.13,NE,51,4.6,4.6,45,0.00,CLR,,0.00,63.0,WeatherDisplay:10.37,2013-05-10 15:18:00,
2013-05-10 10:23:00,45.9,26.3,30.12,ENE,78,6.9,6.9,46,0.00,CLR,,0.00,58.0,WeatherDisplay:10.37,2013-05-10 15:23:00,
2013-05-10 10:28:00,46.2,27.1,30.13,NE,55,3.5,3.5,47,0.00,CLR,,0.00,62.0,WeatherDisplay:10.37,2013-05-10 15:28:00,
2013-05-10 10:33:00,46.5,26.8,30.12,ENE,61,1.1,1.1,46,0.00,CLR,,0.00,62.0,WeatherDisplay:10.37,2013-05-10 15:33:00,
2013-05-10 10:38:00,46.9,26.1,30.12,NNE,18,3.5,3.5,44,0.00,CLR,,0.00,62.0,WeatherDisplay:10.37,2013-05-10 15:38:00,
2013-05-10 10:43:00,47.1,27.4,30.12,East,86,1.1,1.1,46,0.00,CLR,,0.00,98.0,WeatherDisplay:10.37,2013-05-10 15:43:00,
2013-05-10 10:48:00,47.5,26.1,30.12,ENE,57,2.3,2.3,43,0.00,CLR,,0.00,176.0,WeatherDisplay:10.37,2013-05-10 15:48:00,
2013-05-10 10:53:00,47.9,28.1,30.12,NNE,20,2.3,2.3,46,0.00,CLR,,0.00,93.0,WeatherDisplay:10.37,2013-05-10 15:53:00,
2013-05-10 10:58:00,48.5,28.1,30.12,North,360,6.9,6.9,45,0.00,CLR,,0.00,826.0,WeatherDisplay:10.37,2013-05-10 15:58:00,
2013-05-10 11:03:00,49.1,28.7,30.12,NE,51,3.5,3.5,45,0.00,CLR,,0.00,838.0,WeatherDisplay:10.37,2013-05-10 16:03:00,
2013-05-10 11:08:00,49.7,28.1,30.12,ENE,78,3.5,3.5,43,0.00,CLR,,0.00,847.0,WeatherDisplay:10.37,2013-05-10 16:08:00,
2013-05-10 11:13:00,50.6,28.3,30.11,North,11,3.5,3.5,42,0.00,CLR,,0.00,860.0,WeatherDisplay:10.37,2013-05-10 16:13:00,
2013-05-10 11:18:00,51.0,29.8,30.12,ESE,111,3.0,0.0,44,0.00,CLR,,0.00,872.0,WeatherDisplay:10.37,2013-05-10 16:18:00,
2013-05-10 11:23:00,51.2,27.1,30.11,East,90,4.6,4.6,39,0.00,CLR,,0.00,882.0,WeatherDisplay:10.37,2013-05-10 16:23:00,
2013-05-10 11:28:00,50.9,26.8,30.11,East,84,5.0,5.0,39,0.00,CLR,,0.00,891.0,WeatherDisplay:10.37,2013-05-10 16:28:00,
2013-05-10 11:33:00,51.1,28.2,30.11,East,80,3.5,3.5,41,0.00,CLR,,0.00,900.0,WeatherDisplay:10.37,2013-05-10 16:33:00,
2013-05-10 11:38:00,51.8,28.2,30.11,SW,225,3.5,3.5,40,0.00,CLR,,0.00,909.0,WeatherDisplay:10.37,2013-05-10 16:38:00,
2013-05-10 11:43:00,52.2,28.6,30.11,WNW,294,1.1,0.0,40,0.00,CLR,,0.00,916.0,WeatherDisplay:10.37,2013-05-10 16:43:00,
2013-05-10 11:48:00,52.4,28.1,30.11,WSW,252,3.5,3.5,39,0.00,CLR,,0.00,925.0,WeatherDisplay:10.37,2013-05-10 16:48:00,
2013-05-10 11:53:00,52.6,30.1,30.11,NNE,30,2.3,2.3,42,0.00,CLR,,0.00,926.0,WeatherDisplay:10.37,2013-05-10 16:53:00,
2013-05-10 11:58:00,52.5,30.0,30.11,ENE,72,6.9,6.9,42,0.00,CLR,,0.00,935.0,WeatherDisplay:10.37,2013-05-10 16:58:00,
2013-05-10 12:03:00,53.0,29.9,30.11,NE,45,2.0,2.0,41,0.00,CLR,,0.00,942.0,WeatherDisplay:10.37,2013-05-10 17:03:00,
2013-05-10 12:08:00,53.7,31.1,30.11,NNE,24,1.1,1.1,42,0.00,CLR,,0.00,946.0,WeatherDisplay:10.37,2013-05-10 17:08:00,
2013-05-10 12:13:00,54.0,30.8,30.10,NNE,17,3.5,3.5,41,0.00,CLR,,0.00,947.0,WeatherDisplay:10.37,2013-05-10 17:13:00,
2013-05-10 12:18:00,54.2,30.4,30.10,East,82,3.5,3.5,40,0.00,CLR,,0.00,949.0,WeatherDisplay:10.37,2013-05-10 17:18:00,
2013-05-10 12:23:00,54.4,31.8,30.10,East,84,2.3,0.0,42,0.00,CLR,,0.00,951.0,WeatherDisplay:10.37,2013-05-10 17:23:00,
2013-05-10 12:28:00,55.0,29.8,30.10,NNE,12,3.5,3.5,38,0.00,CLR,,0.00,953.0,WeatherDisplay:10.37,2013-05-10 17:28:00,
2013-05-10 12:33:00,55.1,31.8,30.10,NE,46,3.5,3.5,41,0.00,CLR,,0.00,958.0,WeatherDisplay:10.37,2013-05-10 17:33:00,
2013-05-10 12:38:00,55.2,29.4,30.10,NE,48,3.5,3.5,37,0.00,CLR,,0.00,960.0,WeatherDisplay:10.37,2013-05-10 17:38:00,
2013-05-10 12:43:00,55.8,32.4,30.10,NNE,19,4.0,4.0,41,0.00,CLR,,0.00,970.0,WeatherDisplay:10.37,2013-05-10 17:43:00,
2013-05-10 12:48:00,55.9,29.3,30.09,SW,230,3.5,3.5,36,0.00,CLR,,0.00,972.0,WeatherDisplay:10.37,2013-05-10 17:48:00,
2013-05-10 12:53:00,56.3,31.0,30.09,North,9,1.1,1.9,38,0.00,CLR,,0.00,977.0,WeatherDisplay:10.37,2013-05-10 17:53:00,
2013-05-10 12:58:00,57.0,29.6,30.09,NNE,30,1.1,1.7,35,0.00,CLR,,0.00,981.0,WeatherDisplay:10.37,2013-05-10 17:58:00,
2013-05-10 13:03:00,57.2,28.3,30.09,North,5,3.5,3.5,33,0.00,CLR,,0.00,977.0,WeatherDisplay:10.37,2013-05-10 18:03:00,
2013-05-10 13:08:00,56.3,28.3,30.09,SW,234,3.5,3.5,34,0.00,CLR,,0.00,979.0,WeatherDisplay:10.37,2013-05-10 18:08:00,
2013-05-10 13:13:00,55.9,29.3,30.09,East,92,2.3,2.3,36,0.00,CLR,,0.00,974.0,WeatherDisplay:10.37,2013-05-10 18:13:00,
2013-05-10 13:19:00,56.3,29.7,30.08,North,5,1.1,1.1,36,0.00,CLR,,0.00,976.0,WeatherDisplay:10.37,2013-05-10 18:19:00,
2013-05-10 13:24:00,56.7,29.3,30.08,East,84,2.3,3.3,35,0.00,CLR,,0.00,976.0,WeatherDisplay:10.37,2013-05-10 18:24:00,
2013-05-10 13:29:00,56.5,28.4,30.08,East,83,5.0,5.0,34,0.00,CLR,,0.00,974.0,WeatherDisplay:10.37,2013-05-10 18:29:00,
2013-05-10 13:34:00,56.1,27.4,30.08,NE,37,2.3,2.3,33,0.00,CLR,,0.00,970.0,WeatherDisplay:10.37,2013-05-10 18:34:00,
2013-05-10 13:38:00,56.6,28.5,30.07,West,265,2.3,2.3,34,0.00,CLR,,0.00,972.0,WeatherDisplay:10.37,2013-05-10 18:38:00,
2013-05-10 13:44:00,57.2,27.6,30.07,North,360,2.3,2.3,32,0.00,CLR,,0.00,969.0,WeatherDisplay:10.37,2013-05-10 18:44:00,
2013-05-10 13:49:00,57.3,29.1,30.07,SW,225,3.5,3.5,34,0.00,CLR,,0.00,963.0,WeatherDisplay:10.37,2013-05-10 18:49:00,
2013-05-10 13:54:00,58.0,29.0,30.07,North,5,6.9,6.9,33,0.00,CLR,,0.00,960.0,WeatherDisplay:10.37,2013-05-10 18:54:00,
2013-05-10 13:59:00,58.4,28.6,30.07,East,84,3.5,3.5,32,0.00,CLR,,0.00,953.0,WeatherDisplay:10.37,2013-05-10 18:59:00,
2013-05-10 14:04:00,58.1,27.6,30.06,ESE,105,5.0,5.0,31,0.00,CLR,,0.00,946.0,WeatherDisplay:10.37,2013-05-10 19:04:00,
2013-05-10 14:09:00,57.9,28.2,30.05,North,11,2.3,2.3,32,0.00,CLR,,0.00,942.0,WeatherDisplay:10.37,2013-05-10 19:09:00,
2013-05-10 14:14:00,58.2,29.9,30.05,NE,39,2.3,2.3,34,0.00,CLR,,0.00,939.0,WeatherDisplay:10.37,2013-05-10 19:14:00,
2013-05-10 14:19:00,58.7,28.1,30.05,ENE,76,6.0,6.0,31,0.00,CLR,,0.00,935.0,WeatherDisplay:10.37,2013-05-10 19:19:00,
2013-05-10 14:24:00,59.1,29.2,30.05,East,90,2.3,2.3,32,0.00,CLR,,0.00,930.0,WeatherDisplay:10.37,2013-05-10 19:24:00,
2013-05-10 14:29:00,59.1,29.2,30.05,East,91,2.3,2.3,32,0.00,CLR,,0.00,925.0,WeatherDisplay:10.37,2013-05-10 19:29:00,
2013-05-10 14:34:00,59.4,31.0,30.05,WSW,253,3.5,3.5,34,0.00,CLR,,0.00,919.0,WeatherDisplay:10.37,2013-05-10 19:34:00,
2013-05-10 14:39:00,60.4,29.6,30.05,NNE,30,3.5,3.5,31,0.00,CLR,,0.00,914.0,WeatherDisplay:10.37,2013-05-10 19:39:00,
2013-05-10 14:44:00,60.2,25.1,30.04,SW,215,4.6,4.6,26,0.00,CLR,,0.00,907.0,WeatherDisplay:10.37,2013-05-10 19:44:00,
2013-05-10 14:49:00,60.2,28.6,30.04,NE,41,1.1,1.1,30,0.00,CLR,,0.00,898.0,WeatherDisplay:10.37,2013-05-10 19:49:00,
2013-05-10 14:54:00,60.2,29.4,30.04,East,85,4.6,4.6,31,0.00,CLR,,0.00,891.0,WeatherDisplay:10.37,2013-05-10 19:54:00,
2013-05-10 14:59:00,59.8,28.3,30.04,NW,307,2.3,2.3,30,0.00,CLR,,0.00,882.0,WeatherDisplay:10.37,2013-05-10 19:59:00,
2013-05-10 15:04:00,60.1,29.3,30.04,North,360,2.0,2.0,31,0.00,CLR,,0.00,875.0,WeatherDisplay:10.37,2013-05-10 20:04:00,
2013-05-10 15:09:00,60.7,29.1,30.04,East,82,3.0,3.0,30,0.00,CLR,,0.00,863.0,WeatherDisplay:10.37,2013-05-10 20:09:00,
2013-05-10 15:14:00,61.3,30.4,30.04,NNE,19,3.5,3.5,31,0.00,CLR,,0.00,858.0,WeatherDisplay:10.37,2013-05-10 20:14:00,
2013-05-10 15:19:00,62.0,29.3,30.03,North,5,2.3,2.3,29,0.00,CLR,,0.00,847.0,WeatherDisplay:10.37,2013-05-10 20:19:00,
2013-05-10 15:24:00,62.3,28.7,30.04,ENE,63,2.0,2.0,28,0.00,CLR,,0.00,837.0,WeatherDisplay:10.37,2013-05-10 20:24:00,
2013-05-10 15:29:00,61.9,31.7,30.03,WNW,283,3.5,3.5,32,0.00,CLR,,0.00,830.0,WeatherDisplay:10.37,2013-05-10 20:29:00,
2013-05-10 15:34:00,61.6,29.0,30.03,NE,38,3.5,3.5,29,0.00,CLR,,0.00,819.0,WeatherDisplay:10.37,2013-05-10 20:34:00,
2013-05-10 15:39:00,61.3,27.9,30.03,West,264,5.8,5.8,28,0.00,CLR,,0.00,810.0,WeatherDisplay:10.37,2013-05-10 20:39:00,
2013-05-10 15:44:00,61.4,28.0,30.02,NNW,328,2.3,2.3,28,0.00,CLR,,0.00,795.0,WeatherDisplay:10.37,2013-05-10 20:44:00,
2013-05-10 15:49:00,61.9,30.9,30.02,East,85,2.3,2.3,31,0.00,CLR,,0.00,786.0,WeatherDisplay:10.37,2013-05-10 20:49:00,
2013-05-10 15:54:00,61.5,25.3,30.02,NW,309,5.8,5.8,25,0.00,CLR,,0.00,773.0,WeatherDisplay:10.37,2013-05-10 20:54:00,
2013-05-10 15:59:00,61.5,24.3,30.02,NE,49,3.5,3.5,24,0.00,CLR,,0.00,761.0,WeatherDisplay:10.37,2013-05-10 20:59:00,
2013-05-10 16:04:00,62.0,26.7,30.01,ESE,118,3.5,3.5,26,0.00,CLR,,0.00,747.0,WeatherDisplay:10.37,2013-05-10 21:04:00,
2013-05-10 16:09:00,62.2,26.9,30.01,East,80,3.5,3.5,26,0.00,CLR,,0.00,738.0,WeatherDisplay:10.37,2013-05-10 21:09:00,
2013-05-10 16:14:00,62.1,31.1,30.00,East,79,2.3,2.3,31,0.00,CLR,,0.00,722.0,WeatherDisplay:10.37,2013-05-10 21:14:00,
2013-05-10 16:19:00,62.6,25.3,30.00,SSW,207,3.5,3.5,24,0.00,CLR,,0.00,708.0,WeatherDisplay:10.37,2013-05-10 21:19:00,
2013-05-10 16:24:00,62.6,22.1,30.00,SW,226,3.5,3.5,21,0.00,CLR,,0.00,693.0,WeatherDisplay:10.37,2013-05-10 21:24:00,
2013-05-10 16:29:00,62.8,27.4,30.00,SW,215,1.1,1.1,26,0.00,CLR,,0.00,680.0,WeatherDisplay:10.37,2013-05-10 21:29:00,
2013-05-10 16:34:00,62.8,30.0,29.99,SW,216,1.1,1.1,29,0.00,CLR,,0.00,670.0,WeatherDisplay:10.37,2013-05-10 21:34:00,
2013-05-10 16:39:00,62.8,22.2,29.99,WSW,245,4.6,4.6,21,0.00,CLR,,0.00,652.0,WeatherDisplay:10.37,2013-05-10 21:39:00,
2013-05-10 16:44:00,62.9,24.5,29.99,North,5,2.3,2.3,23,0.00,CLR,,0.00,636.0,WeatherDisplay:10.37,2013-05-10 21:44:00,
2013-05-10 16:49:00,63.3,24.8,29.99,West,271,2.0,2.0,23,0.00,CLR,,0.00,624.0,WeatherDisplay:10.37,2013-05-10 21:49:00,
2013-05-10 16:54:00,63.2,24.7,29.99,WSW,247,5.0,5.0,23,0.00,CLR,,0.00,610.0,WeatherDisplay:10.37,2013-05-10 21:54:00,
2013-05-10 16:58:00,62.7,25.3,29.99,SW,232,1.1,1.1,24,0.00,CLR,,0.00,599.0,WeatherDisplay:10.37,2013-05-10 21:58:00,
2013-05-10 17:03:00,62.4,24.1,29.98,North,5,3.5,3.5,23,0.00,CLR,,0.00,575.0,WeatherDisplay:10.37,2013-05-10 22:03:00,
2013-05-10 17:08:00,62.5,23.1,29.98,North,355,1.1,1.1,22,0.00,CLR,,0.00,529.0,WeatherDisplay:10.37,2013-05-10 22:08:00,
2013-05-10 17:13:00,62.8,24.4,29.98,SW,223,0.0,0.1,23,0.00,CLR,,0.00,552.0,WeatherDisplay:10.37,2013-05-10 22:13:00,
2013-05-10 17:18:00,62.9,23.4,29.98,East,92,2.3,2.3,22,0.00,CLR,,0.00,534.0,WeatherDisplay:10.37,2013-05-10 22:18:00,
2013-05-10 17:23:00,62.7,27.3,29.97,East,90,3.5,3.5,26,0.00,CLR,,0.00,441.0,WeatherDisplay:10.37,2013-05-10 22:23:00,
2013-05-10 17:28:00,62.2,21.7,29.97,East,94,3.5,3.5,21,0.00,CLR,,0.00,443.0,WeatherDisplay:10.37,2013-05-10 22:28:00,
2013-05-10 17:33:00,62.0,23.7,29.97,North,11,3.0,3.0,23,0.00,CLR,,0.00,394.0,WeatherDisplay:10.37,2013-05-10 22:33:00,
2013-05-10 17:38:00,61.6,24.4,29.97,ENE,61,2.3,2.3,24,0.00,CLR,,0.00,404.0,WeatherDisplay:10.37,2013-05-10 22:38:00,
2013-05-10 17:43:00,61.2,23.1,29.97,NNE,17,1.1,1.1,23,0.00,CLR,,0.00,232.0,WeatherDisplay:10.37,2013-05-10 22:43:00,
2013-05-10 17:48:00,60.9,24.8,29.97,NNW,331,3.5,3.5,25,0.00,CLR,,0.00,142.0,WeatherDisplay:10.37,2013-05-10 22:48:00,
2013-05-10 17:53:00,60.8,26.6,29.97,SSE,164,2.3,2.3,27,0.00,CLR,,0.00,62.0,WeatherDisplay:10.37,2013-05-10 22:53:00,
2013-05-10 17:58:00,60.5,25.4,29.97,NW,313,2.3,2.3,26,0.00,CLR,,0.00,44.0,WeatherDisplay:10.37,2013-05-10 22:58:00,
2013-05-10 18:03:00,60.2,26.1,29.97,WSW,254,5.0,5.0,27,0.00,CLR,,0.00,44.0,WeatherDisplay:10.37,2013-05-10 23:03:00,
2013-05-10 18:08:00,59.9,24.9,29.97,WSW,257,2.3,2.3,26,0.00,CLR,,0.00,42.0,WeatherDisplay:10.37,2013-05-10 23:08:00,
2013-05-10 18:13:00,59.7,25.6,29.96,NNW,329,2.3,2.3,27,0.00,CLR,,0.00,40.0,WeatherDisplay:10.37,2013-05-10 23:13:00,
2013-05-10 18:18:00,59.5,25.5,29.96,NNW,342,2.3,0.0,27,0.00,CLR,,0.00,39.0,WeatherDisplay:10.37,2013-05-10 23:18:00,
2013-05-10 18:23:00,59.4,24.5,29.96,North,355,1.1,1.1,26,0.00,CLR,,0.00,40.0,WeatherDisplay:10.37,2013-05-10 23:23:00,
2013-05-10 18:28:00,59.0,26.8,29.95,NNW,330,3.5,3.5,29,0.00,CLR,,0.00,26.0,WeatherDisplay:10.37,2013-05-10 23:28:00,
2013-05-10 18:33:00,58.7,28.9,29.95,NNW,327,0.0,0.0,32,0.00,CLR,,0.00,28.0,WeatherDisplay:10.37,2013-05-10 23:33:00,
2013-05-10 18:38:00,58.3,27.0,29.95,WNW,299,1.1,1.1,30,0.00,CLR,,0.00,46.0,WeatherDisplay:10.37,2013-05-10 23:38:00,
2013-05-10 18:43:00,58.0,25.0,29.95,NNW,342,2.3,2.3,28,0.00,CLR,,0.00,53.0,WeatherDisplay:10.37,2013-05-10 23:43:00,
2013-05-10 18:48:00,57.8,28.1,29.95,NNW,342,0.0,0.0,32,0.00,CLR,,0.00,46.0,WeatherDisplay:10.37,2013-05-10 23:48:00,
2013-05-10 18:53:00,57.7,28.0,29.95,WNW,293,0.0,0.0,32,0.00,CLR,,0.00,33.0,WeatherDisplay:10.37,2013-05-10 23:53:00,
2013-05-10 18:58:00,57.5,30.0,29.94,WNW,293,0.0,0.0,35,0.00,CLR,,0.00,32.0,WeatherDisplay:10.37,2013-05-10 23:58:00,
2013-05-10 19:03:00,57.2,27.6,29.94,WNW,293,0.0,0.0,32,0.00,CLR,,0.00,39.0,WeatherDisplay:10.37,2013-05-11 00:03:00,
2013-05-10 19:08:00,56.8,28.7,29.94,WNW,293,1.1,1.1,34,0.00,CLR,,0.00,35.0,WeatherDisplay:10.37,2013-05-11 00:08:00,
2013-05-10 19:13:00,56.4,29.7,29.94,WNW,293,0.0,0.0,36,0.00,CLR,,0.00,35.0,WeatherDisplay:10.37,2013-05-11 00:13:00,
2013-05-10 19:18:00,56.1,28.1,29.94,WNW,293,0.0,0.0,34,0.00,CLR,,0.00,32.0,WeatherDisplay:10.37,2013-05-11 00:18:00,
2013-05-10 19:23:00,55.8,28.5,29.94,WNW,293,0.0,0.0,35,0.00,CLR,,0.00,25.0,WeatherDisplay:10.37,2013-05-11 00:23:00,
2013-05-10 19:28:00,55.4,28.9,29.94,WNW,293,0.0,0.0,36,0.00,CLR,,0.00,23.0,WeatherDisplay:10.37,2013-05-11 00:28:00,
2013-05-10 19:33:00,55.0,29.2,29.94,WNW,293,0.0,0.0,37,0.00,CLR,,0.00,25.0,WeatherDisplay:10.37,2013-05-11 00:33:00,
2013-05-10 19:38:00,54.6,29.5,29.94,WNW,293,0.0,0.0,38,0.00,CLR,,0.00,23.0,WeatherDisplay:10.37,2013-05-11 00:38:00,
2013-05-10 19:43:00,54.3,31.1,29.94,WNW,293,0.0,0.0,41,0.00,CLR,,0.00,19.0,WeatherDisplay:10.37,2013-05-11 00:43:00,
2013-05-10 19:48:00,53.9,29.5,29.94,WNW,293,0.0,0.0,39,0.00,CLR,,0.00,16.0,WeatherDisplay:10.37,2013-05-11 00:48:00,
2013-05-10 19:53:00,53.6,31.0,29.94,WNW,293,0.0,0.0,42,0.00,CLR,,0.00,12.0,WeatherDisplay:10.37,2013-05-11 00:53:00,
2013-05-10 19:58:00,53.3,32.5,29.93,WNW,293,0.0,0.0,45,0.00,CLR,,0.00,11.0,WeatherDisplay:10.37,2013-05-11 00:58:00,
2013-05-10 20:03:00,53.0,32.2,29.93,WNW,293,0.0,0.0,45,0.00,CLR,,0.00,9.0,WeatherDisplay:10.37,2013-05-11 01:03:00,
2013-05-10 20:08:00,52.4,31.1,29.93,WNW,293,0.0,0.0,44,0.00,CLR,,0.00,5.0,WeatherDisplay:10.37,2013-05-11 01:08:00,
2013-05-10 20:13:00,51.8,31.7,29.93,WNW,293,0.0,0.0,46,0.00,CLR,,0.00,0.0,WeatherDisplay:10.37,2013-05-11 01:13:00,
2013-05-10 20:18:00,51.3,31.7,29.93,WNW,293,0.0,0.0,47,0.00,CLR,,0.00,0.0,WeatherDisplay:10.37,2013-05-11 01:18:00,
2013-05-10 20:23:00,50.8,31.3,29.93,WNW,293,1.1,0.0,47,0.00,CLR,,0.00,0.0,WeatherDisplay:10.37,2013-05-11 01:23:00,
2013-05-10 20:29:00,50.2,33.7,29.93,WNW,293,0.0,0.0,53,0.00,CLR,,0.00,0.0,WeatherDisplay:10.37,2013-05-11 01:29:00,
2013-05-10 20:34:00,49.4,34.8,29.93,WNW,293,0.0,0.0,57,0.00,CLR,,0.00,0.0,WeatherDisplay:10.37,2013-05-11 01:34:00,
2013-05-10 20:39:00,48.7,33.2,29.93,WNW,293,0.0,0.0,55,0.00,CLR,,0.00,0.0,WeatherDisplay:10.37,2013-05-11 01:39:00,
2013-05-10 20:44:00,48.4,33.9,29.93,WNW,293,0.0,0.0,57,0.00,CLR,,0.00,0.0,WeatherDisplay:10.37,2013-05-11 01:44:00,
2013-05-10 20:49:00,48.1,33.1,29.93,WNW,293,0.0,0.0,56,0.00,CLR,,0.00,0.0,WeatherDisplay:10.37,2013-05-11 01:49:00,
2013-05-10 20:54:00,47.8,33.7,29.93,WNW,293,0.0,0.0,58,0.00,CLR,,0.00,0.0,WeatherDisplay:10.37,2013-05-11 01:54:00,
2013-05-10 20:59:00,47.5,34.3,29.93,WNW,293,0.0,0.0,60,0.00,CLR,,0.00,0.0,WeatherDisplay:10.37,2013-05-11 01:59:00,
2013-05-10 21:04:00,46.9,34.1,29.93,WNW,293,0.0,0.0,61,0.00,FEW,,0.00,0.0,WeatherDisplay:10.37,2013-05-11 02:04:00,
2013-05-10 21:09:00,46.7,33.5,29.93,WNW,293,0.0,0.0,60,0.00,FEW,,0.00,0.0,WeatherDisplay:10.37,2013-05-11 02:09:00,
2013-05-10 21:14:00,46.5,33.8,29.93,WNW,293,0.0,0.0,61,0.00,FEW,,0.00,0.0,WeatherDisplay:10.37,2013-05-11 02:14:00,
2013-05-10 21:19:00,46.4,34.1,29.93,ENE,57,1.0,0.0,62,0.00,FEW,,0.00,0.0,WeatherDisplay:10.37,2013-05-11 02:19:00,
2013-05-10 21:24:00,46.3,33.6,29.92,ENE,57,0.0,0.0,61,0.00,FEW,,0.00,0.0,WeatherDisplay:10.37,2013-05-11 02:24:00,
2013-05-10 21:29:00,46.3,34.0,29.92,ENE,57,0.0,0.0,62,0.00,FEW,,0.00,0.0,WeatherDisplay:10.37,2013-05-11 02:29:00,
2013-05-10 21:34:00,46.2,32.7,29.92,ENE,57,0.0,0.0,59,0.00,FEW,,0.00,0.0,WeatherDisplay:10.37,2013-05-11 02:34:00,
2013-05-10 21:39:00,46.2,33.5,29.92,ENE,57,0.0,0.0,61,0.00,FEW,,0.00,0.0,WeatherDisplay:10.37,2013-05-11 02:39:00,
2013-05-10 21:44:00,46.2,35.8,29.92,ENE,57,0.0,0.0,67,0.00,FEW,,0.00,0.0,WeatherDisplay:10.37,2013-05-11 02:44:00,
2013-05-10 21:49:00,46.2,34.7,29.92,ENE,57,0.0,0.0,64,0.00,FEW,,0.00,0.0,WeatherDisplay:10.37,2013-05-11 02:49:00,
2013-05-10 21:54:00,46.1,34.2,29.92,ENE,57,0.0,0.0,63,0.00,FEW,,0.00,0.0,WeatherDisplay:10.37,2013-05-11 02:54:00,
2013-05-10 21:59:00,46.1,34.2,29.91,ENE,57,0.0,0.0,63,0.00,FEW,,0.00,0.0,WeatherDisplay:10.37,2013-05-11 02:59:00,
2013-05-10 22:04:00,46.0,33.7,29.91,ENE,57,0.0,0.0,62,0.00,OVC,,0.00,0.0,WeatherDisplay:10.37,2013-05-11 03:04:00,
2013-05-10 22:09:00,45.9,34.4,29.91,ENE,57,0.0,0.0,64,0.00,OVC,,0.00,0.0,WeatherDisplay:10.37,2013-05-11 03:09:00,
2013-05-10 22:14:00,45.8,33.9,29.91,ENE,57,0.0,0.0,63,0.00,OVC,,0.00,0.0,WeatherDisplay:10.37,2013-05-11 03:14:00,
2013-05-10 22:19:00,45.8,34.3,29.92,ENE,57,0.0,0.0,64,0.00,OVC,,0.00,0.0,WeatherDisplay:10.37,2013-05-11 03:19:00,
2013-05-10 22:24:00,45.8,35.1,29.92,ENE,57,0.0,0.0,66,0.00,OVC,,0.00,0.0,WeatherDisplay:10.37,2013-05-11 03:24:00,
2013-05-10 22:29:00,45.8,34.7,29.92,ENE,57,0.0,0.0,65,0.00,OVC,,0.00,0.0,WeatherDisplay:10.37,2013-05-11 03:29:00,
2013-05-10 22:34:00,45.8,36.6,29.92,ENE,57,0.0,0.0,70,0.00,OVC,,0.00,0.0,WeatherDisplay:10.37,2013-05-11 03:34:00,
2013-05-10 22:39:00,45.8,36.6,29.92,ENE,57,0.0,0.0,70,0.00,OVC,,0.00,0.0,WeatherDisplay:10.37,2013-05-11 03:39:00,
2013-05-10 22:44:00,45.8,36.6,29.92,ENE,57,0.0,0.0,70,0.00,OVC,,0.00,0.0,WeatherDisplay:10.37,2013-05-11 03:44:00,
2013-05-10 22:49:00,45.7,36.5,29.92,ENE,57,0.0,0.0,70,0.00,OVC,,0.00,0.0,WeatherDisplay:10.37,2013-05-11 03:49:00,
2013-05-10 22:54:00,45.7,36.1,29.91,ENE,57,0.0,0.0,69,0.00,OVC,,0.00,0.0,WeatherDisplay:10.37,2013-05-11 03:54:00,
2013-05-10 22:59:00,45.6,36.0,29.91,ENE,57,0.0,0.0,69,0.00,OVC,,0.00,0.0,WeatherDisplay:10.37,2013-05-11 03:59:00,
2013-05-10 23:01:00,45.6,36.4,29.91,ENE,57,0.0,0.0,70,0.00,SCT,,0.00,0.0,WeatherDisplay:10.37,2013-05-11 04:01:00,
2013-05-10 23:06:00,45.5,34.8,29.91,ENE,57,0.0,0.0,66,0.00,SCT,,0.00,0.0,WeatherDisplay:10.37,2013-05-11 04:06:00,
2013-05-10 23:11:00,45.4,35.1,29.91,ENE,57,0.0,0.0,67,0.00,SCT,,0.00,0.0,WeatherDisplay:10.37,2013-05-11 04:11:00,
2013-05-10 23:16:00,45.4,35.1,29.91,ENE,57,0.0,0.0,67,0.00,SCT,,0.00,0.0,WeatherDisplay:10.37,2013-05-11 04:16:00,
2013-05-10 23:21:00,45.3,35.0,29.90,ENE,57,0.0,0.0,67,0.00,SCT,,0.00,0.0,WeatherDisplay:10.37,2013-05-11 04:21:00,
2013-05-10 23:26:00,45.3,35.4,29.90,ENE,57,0.0,0.0,68,0.00,SCT,,0.00,0.0,WeatherDisplay:10.37,2013-05-11 04:26:00,
2013-05-10 23:31:00,45.2,35.6,29.89,ENE,57,0.0,0.0,69,0.00,SCT,,0.00,0.0,WeatherDisplay:10.37,2013-05-11 04:31:00,
2013-05-10 23:36:00,45.1,35.5,29.89,ENE,57,0.0,0.0,69,0.00,SCT,,0.00,0.0,WeatherDisplay:10.37,2013-05-11 04:36:00,
2013-05-10 23:41:00,45.1,36.6,29.89,ENE,57,0.0,0.0,72,0.00,SCT,,0.00,0.0,WeatherDisplay:10.37,2013-05-11 04:41:00,
2013-05-10 23:46:00,45.0,36.5,29.89,ENE,57,0.0,0.0,72,0.00,SCT,,0.00,0.0,WeatherDisplay:10.37,2013-05-11 04:46:00,
2013-05-10 23:51:00,44.9,36.4,29.89,ENE,57,0.0,0.0,72,0.00,SCT,,0.00,0.0,WeatherDisplay:10.37,2013-05-11 04:51:00,
2013-05-10 23:56:00,44.7,35.9,29.89,ENE,57,0.0,0.0,71,0.00,SCT,,0.00,0.0,WeatherDisplay:10.37,2013-05-11 04:56:00,